Flag for France Weather past 2 weeks in Brest, France

Now
63 °F

Fog.


Feels Like: 63 °F
Forecast: 57 / 79 °F
Wind: 6 mph from Northeast

Location: Brest Airport

Current Time: Jul 22, 2014 at 9:39:04 AM

Latest Report: Jul 22, 2014 at 9:00 AM


Visibility: 0 mi

Pressure: 30.21 "Hg

Humidity: 94%

Dew point: 61 °F

Location of BrestLocation

Historic Weather in Brest — Graph

°F

Brest temperature yesterday

Maximum temperature yesterday: 73 °F (at 3:00 PM)
Minimum temperature yesterday: 57 °F (at 5:30 AM)
Average temperature yesterday: 65 °F

Past Weeks' High & Low Weather Summary

 TemperatureHumidityPressure
High82 °F (Jul 17, 1:30 PM)100% (Jul 8, 3:30 AM)30.24 "Hg (Jul 8, 3:30 AM)
Low52 °F (Jul 14, 7:00 AM)49% (Jul 13, 5:00 PM)29.77 "Hg (Jul 19, 5:00 AM)
Average63 °F82%30.05 "Hg
* Reported Jul 7 8:00 AM — Jul 22 8:30 AM, Brest, Weather by CustomWeather, © 2014

Note: Actual official high and low records may vary slightly from our data, if they occured in-between our weather recording intervals... More about our weather records

Advertising

Brest weather history for previous 24 hours

 ConditionsComfort  
Time TempWeatherWind HumidityBarometerVisibility
8:30 AM
Jul 22
61 °FFog.6 mph100%30.21 "Hg0 mi
8:00 AM61 °FFog.5 mph100%30.21 "Hg0 mi
7:30 AM59 °FFog.5 mph100%30.21 "Hg0 mi
7:00 AM59 °FFog.3 mph94%30.21 "Hg1 mi
6:30 AM57 °FFog.3 mph100%30.21 "Hg1 mi
6:00 AM57 °FFog.No wind100%30.21 "Hg1 mi
5:30 AM57 °FFog.2 mph100%30.21 "Hg1 mi
5:00 AM57 °FFog.5 mph100%30.21 "Hg1 mi
4:30 AM59 °FFog.5 mph94%30.21 "Hg1 mi
4:00 AM59 °FFog.5 mph94%30.21 "Hg1 mi
3:30 AM59 °FFog.5 mph94%30.21 "Hg1 mi
3:00 AM59 °FFog.3 mph94%30.21 "Hg1 mi
2:30 AM59 °FFog.3 mph94%30.21 "Hg1 mi
2:00 AM59 °FFog.3 mph94%30.24 "Hg1 mi
1:41 AM59 °FFog.5 mph94%30.24 "Hg1 mi
1:30 AM59 °FFog.3 mph94%30.24 "Hg1 mi
1:00 AM59 °FFog.3 mph94%30.24 "Hg4 mi
12:30 AM59 °FClear.2 mph94%30.24 "Hg4 mi
12:00 AM61 °FClear.3 mph88%30.24 "Hg4 mi
11:30 PM
Jul 21
61 °FClear.2 mph94%30.24 "Hg6 mi
11:00 PM61 °FSunny.1 mph88%30.24 "Hg10 mi
10:30 PM63 °FSunny.3 mph83%30.21 "Hg10 mi
10:00 PM64 °FPassing clouds.5 mph78%30.21 "HgN/A
9:30 PM66 °FPassing clouds.7 mph73%30.21 "HgN/A
9:00 PM66 °FPassing clouds.7 mph78%30.21 "HgN/A
8:30 PM66 °FScattered clouds.8 mph73%30.21 "HgN/A
8:00 PM68 °FScattered clouds.8 mph69%30.21 "HgN/A
7:30 PM72 °FScattered clouds.9 mph61%30.21 "HgN/A
7:00 PM72 °FScattered clouds.10 mph65%30.21 "HgN/A
6:30 PM72 °FScattered clouds.9 mph65%30.18 "HgN/A
6:00 PM70 °FScattered clouds.8 mph64%30.18 "HgN/A
5:30 PM72 °FScattered clouds.7 mph61%30.18 "HgN/A
5:00 PM72 °FScattered clouds.10 mph65%30.18 "HgN/A
4:30 PM72 °FScattered clouds.9 mph65%30.18 "HgN/A
4:00 PM73 °FScattered clouds.12 mph57%30.18 "HgN/A
3:30 PM73 °FScattered clouds.8 mph57%30.18 "HgN/A
3:00 PM73 °FPartly sunny.9 mph57%30.18 "HgN/A
2:30 PM72 °FPartly sunny.7 mph61%30.18 "HgN/A
2:00 PM72 °FPartly sunny.8 mph61%30.18 "HgN/A
1:30 PM72 °FPartly sunny.6 mph61%30.18 "HgN/A
1:05 PM70 °FPartly sunny.8 mph69%30.18 "HgN/A
12:30 PM70 °FPartly sunny.6 mph69%30.18 "HgN/A
12:00 PM68 °FBroken clouds.6 mph73%30.18 "HgN/A
11:30 AM66 °FBroken clouds.5 mph83%30.18 "HgN/A
11:00 AM64 °FBroken clouds.2 mph88%30.18 "HgN/A
10:30 AM63 °FPartly sunny.2 mph94%30.18 "Hg5 mi
10:00 AM63 °FBroken clouds.2 mph94%30.18 "Hg4 mi
9:30 AM63 °FFog.1 mph94%30.15 "Hg2 mi
9:00 AM61 °FFog.2 mph100%30.15 "Hg2 mi
Weather by CustomWeather, © 2014

See weather overviewHow to use our weather pages